• In Netherlands
  • List of Countries
  • For 7 days
  • Water Temperature
  • Satellite Maps
  • Weather Map
  • Weather Widgets
  • user-avatar
    Login

    Hourly Weather Baku

    Today, 23 November, Thursday

    Time Temperature Precipitation Wind Pressure Humidity
    00:00 +7°C° 0.1 mm 12 mps 759 mmHg 75%
    01:00 +7°C° 0.2 mm 12 mps 759 mmHg 76%
    02:00 +7°C° 0.2 mm 11 mps 759 mmHg 76%
    03:00 +6°C° 0.2 mm 10 mps 760 mmHg 77%
    04:00 +6°C° 0.2 mm 9 mps 760 mmHg 77%
    05:00 +6°C° 0.2 mm 9 mps 760 mmHg 78%
    06:00 +6°C° 0.2 mm 8 mps 760 mmHg 78%
    07:00 +6°C° 0.2 mm 7 mps 760 mmHg 78%
    08:00 +7°C° 0.2 mm 6 mps 760 mmHg 77%
    09:00 +7°C° 0.2 mm 5 mps 761 mmHg 76%
    10:00 +8°C° 0.1 mm 4 mps 760 mmHg 75%
    11:00 +9°C° 0.1 mm 3 mps 760 mmHg 73%
    12:00 +9°C° 0.1 mm 3 mps 760 mmHg 72%
    13:00 +10°C° 0 mm 3 mps 760 mmHg 68%
    14:00 +10°C° 0 mm 3 mps 760 mmHg 64%
    15:00 +11°C° 0 mm 4 mps 759 mmHg 60%
    16:00 +11°C° 0 mm 4 mps 760 mmHg 58%
    17:00 +10°C° 0 mm 5 mps 760 mmHg 56%
    18:00 +9°C° 0 mm 6 mps 760 mmHg 55%
    19:00 +9°C° 0 mm 6 mps 761 mmHg 51%
    20:00 +9°C° 0 mm 6 mps 761 mmHg 47%
    21:00 +9°C° 0 mm 6 mps 761 mmHg 43%
    22:00 +9°C° 0 mm 6 mps 761 mmHg 52%
    23:00 +9°C° 0 mm 7 mps 762 mmHg 61%

    Tomorrow, 24 November, Friday

    Time Temperature Precipitation Wind Pressure Humidity
    00:00 +8°C° 0 mm 7 mps 762 mmHg 70%
    01:00 +8°C° 0.1 mm 7 mps 762 mmHg 71%
    02:00 +8°C° 0.1 mm 6 mps 762 mmHg 73%
    03:00 +8°C° 0.1 mm 6 mps 762 mmHg 74%
    04:00 +8°C° 0.2 mm 7 mps 763 mmHg 76%
    05:00 +8°C° 0.2 mm 7 mps 763 mmHg 78%
    06:00 +8°C° 0.2 mm 7 mps 763 mmHg 80%
    07:00 +8°C° 0.4 mm 7 mps 763 mmHg 77%
    08:00 +7°C° 0.4 mm 8 mps 764 mmHg 73%
    09:00 +7°C° 0.4 mm 9 mps 764 mmHg 70%
    10:00 +7°C° 0.2 mm 9 mps 764 mmHg 66%
    11:00 +7°C° 0.2 mm 9 mps 764 mmHg 62%
    12:00 +8°C° 0.2 mm 9 mps 764 mmHg 58%
    13:00 +8°C° 0 mm 9 mps 764 mmHg 57%
    14:00 +9°C° 0 mm 8 mps 764 mmHg 56%
    15:00 +9°C° 0 mm 8 mps 764 mmHg 56%
    16:00 +7°C° 0 mm 8 mps 764 mmHg 58%
    17:00 +7°C° 0 mm 8 mps 764 mmHg 60%
    18:00 +6°C° 0 mm 8 mps 765 mmHg 62%
    19:00 +6°C° 0 mm 8 mps 765 mmHg 61%
    20:00 +6°C° 0 mm 7 mps 765 mmHg 61%
    21:00 +6°C° 0 mm 7 mps 765 mmHg 60%
    22:00 +7°C° 0 mm 6 mps 765 mmHg 59%
    23:00 +5°C° 0 mm 6 mps 765 mmHg 57%

    Day after tomorrow, 25 November, Saturday

    Time Temperature Precipitation Wind Pressure Humidity
    00:00 +5°C° 0 mm 6 mps 765 mmHg 56%
    01:00 +5°C° 0 mm 6 mps 765 mmHg 54%
    02:00 +5°C° 0 mm 6 mps 765 mmHg 53%
    03:00 +5°C° 0 mm 6 mps 765 mmHg 51%
    04:00 +5°C° 0 mm 6 mps 766 mmHg 51%
    05:00 +5°C° 0 mm 6 mps 766 mmHg 51%
    06:00 +5°C° 0 mm 7 mps 766 mmHg 50%
    07:00 +5°C° 0.4 mm 8 mps 767 mmHg 56%
    08:00 +5°C° 0.4 mm 10 mps 767 mmHg 61%
    09:00 +6°C° 0.4 mm 11 mps 768 mmHg 66%
    10:00 +6°C° 0.4 mm 11 mps 768 mmHg 64%
    11:00 +6°C° 0.4 mm 10 mps 768 mmHg 63%
    12:00 +7°C° 0.4 mm 10 mps 768 mmHg 61%
    13:00 +7°C° 0.3 mm 9 mps 769 mmHg 62%
    14:00 +7°C° 0.3 mm 9 mps 769 mmHg 62%
    15:00 +6°C° 0.3 mm 9 mps 770 mmHg 63%
    16:00 +6°C° 0.2 mm 9 mps 770 mmHg 64%
    17:00 +6°C° 0.2 mm 10 mps 771 mmHg 65%
    18:00 +5°C° 0.2 mm 10 mps 772 mmHg 67%
    19:00 +5°C° 0.1 mm 10 mps 772 mmHg 69%
    20:00 +5°C° 0.1 mm 9 mps 772 mmHg 71%
    21:00 +5°C° 0.1 mm 9 mps 773 mmHg 73%
    22:00 +5°C° 0.1 mm 8 mps 773 mmHg 73%
    23:00 +5°C° 0.1 mm 7 mps 773 mmHg 73%

    26 November, Sunday

    Time Temperature Precipitation Wind Pressure Humidity
    00:00 +5°C° 0.1 mm 7 mps 773 mmHg 73%
    01:00 +5°C° 0.1 mm 6 mps 773 mmHg 73%
    02:00 +5°C° 0.1 mm 6 mps 773 mmHg 73%
    03:00 +6°C° 0.1 mm 5 mps 773 mmHg 73%
    04:00 +5°C° 0.1 mm 5 mps 773 mmHg 74%
    05:00 +5°C° 0.1 mm 4 mps 774 mmHg 74%
    06:00 +5°C° 0.1 mm 4 mps 774 mmHg 74%
    07:00 +7°C° 0.1 mm 3 mps 774 mmHg 73%
    08:00 +7°C° 0.1 mm 3 mps 774 mmHg 71%
    09:00 +8°C° 0.1 mm 3 mps 774 mmHg 69%
    10:00 +8°C° 0 mm 3 mps 774 mmHg 67%
    11:00 +8°C° 0 mm 2 mps 774 mmHg 64%
    12:00 +9°C° 0 mm 2 mps 773 mmHg 62%
    13:00 +9°C° 0 mm 2 mps 773 mmHg 60%
    14:00 +9°C° 0 mm 2 mps 773 mmHg 59%
    15:00 +9°C° 0 mm 2 mps 772 mmHg 57%
    16:00 +9°C° 0 mm 2 mps 772 mmHg 58%
    17:00 +9°C° 0 mm 2 mps 772 mmHg 58%
    18:00 +9°C° 0 mm 3 mps 772 mmHg 59%
    19:00 +9°C° 0 mm 3 mps 772 mmHg 59%
    20:00 +9°C° 0 mm 3 mps 772 mmHg 59%
    21:00 +7°C° 0 mm 4 mps 772 mmHg 59%
    22:00 +7°C° 0 mm 4 mps 772 mmHg 60%
    23:00 +7°C° 0 mm 4 mps 771 mmHg 61%

    27 November, Monday

    Time Temperature Precipitation Wind Pressure Humidity
    00:00 +7°C° 0 mm 4 mps 771 mmHg 62%
    01:00 +7°C° 0 mm 5 mps 770 mmHg 62%
    02:00 +7°C° 0 mm 5 mps 770 mmHg 62%
    03:00 +7°C° 0 mm 5 mps 770 mmHg 62%
    04:00 +7°C° 0 mm 5 mps 770 mmHg 61%
    05:00 +7°C° 0 mm 5 mps 769 mmHg 59%
    06:00 +7°C° 0 mm 5 mps 769 mmHg 57%
    07:00 +7°C° 0.1 mm 5 mps 769 mmHg 54%
    08:00 +8°C° 0.1 mm 5 mps 769 mmHg 50%
    09:00 +8°C° 0.1 mm 5 mps 769 mmHg 47%
    10:00 +9°C° 0 mm 5 mps 769 mmHg 45%
    11:00 +10°C° 0 mm 5 mps 769 mmHg 44%
    12:00 +10°C° 0 mm 5 mps 768 mmHg 43%
    13:00 +10°C° 0 mm 5 mps 768 mmHg 42%
    14:00 +12°C° 0 mm 5 mps 767 mmHg 42%
    15:00 +12°C° 0 mm 5 mps 767 mmHg 42%
    16:00 +10°C° 0 mm 5 mps 767 mmHg 43%
    17:00 +10°C° 0 mm 5 mps 767 mmHg 44%
    18:00 +9°C° 0 mm 5 mps 767 mmHg 46%
    19:00 +9°C° 0 mm 5 mps 767 mmHg 46%
    20:00 +9°C° 0 mm 6 mps 767 mmHg 46%
    21:00 +9°C° 0 mm 6 mps 767 mmHg 46%
    22:00 +9°C° 0 mm 6 mps 767 mmHg 47%
    23:00 +8°C° 0 mm 6 mps 766 mmHg 47%

    28 November, Tuesday

    Time Temperature Precipitation Wind Pressure Humidity
    00:00 +8°C° 0 mm 6 mps 766 mmHg 48%
    01:00 +8°C° 0 mm 6 mps 766 mmHg 53%
    02:00 +8°C° 0 mm 6 mps 765 mmHg 57%
    03:00 +9°C° 0 mm 6 mps 765 mmHg 62%
    04:00 +9°C° 0 mm 6 mps 765 mmHg 65%
    05:00 +9°C° 0 mm 6 mps 765 mmHg 67%
    06:00 +9°C° 0 mm 6 mps 765 mmHg 70%
    07:00 +10°C° 0.1 mm 6 mps 765 mmHg 69%
    08:00 +10°C° 0.1 mm 6 mps 765 mmHg 68%
    09:00 +10°C° 0.1 mm 6 mps 765 mmHg 67%
    10:00 +11°C° 0.1 mm 7 mps 765 mmHg 66%
    11:00 +11°C° 0.1 mm 7 mps 764 mmHg 65%
    12:00 +12°C° 0.1 mm 7 mps 764 mmHg 63%
    13:00 +12°C° 0 mm 7 mps 764 mmHg 61%
    14:00 +12°C° 0 mm 7 mps 763 mmHg 58%
    15:00 +13°C° 0 mm 6 mps 763 mmHg 56%
    16:00 +13°C° 0 mm 6 mps 763 mmHg 54%
    17:00 +11°C° 0 mm 6 mps 763 mmHg 53%
    18:00 +11°C° 0 mm 6 mps 764 mmHg 52%
    19:00 +12°C° 0 mm 5 mps 764 mmHg 49%
    20:00 +10°C° 0 mm 5 mps 764 mmHg 47%
    21:00 +10°C° 0 mm 5 mps 764 mmHg 45%
    22:00 +10°C° 0 mm 5 mps 764 mmHg 42%
    23:00 +11°C° 0 mm 4 mps 764 mmHg 39%
    Show more